Location: Krakow
(50.0830°N, 19.9170°E)
Time: 19:57:08
(UTC+02:00)

Vanguard 1 Rocket - Pass Details

Date: 21 March 2026
Orbit: 654 x 4213 km, 34.3° (Epoch: 11 April)

Event Time Altitude Azimuth Distance (km) Brightness Sun altitude
Exits shadow 04:39:14 - 219° (SW) 4,590 10.5 -10.7°
Reaches altitude 10° 04:44:03 10° 198° (SSW) 3,166 9.9 -9.9°
Maximum altitude 04:47:12 13° 172° (S) 2,570 9.7 -9.5°
Drops below altitude 10° 04:49:50 10° 144° (SE) 2,523 10.0 -9.0°
Sets 04:53:21 0° 115° (ESE) 3,161 11.2 -8.5°
